Participated 1 time
in 2022
Edward Planckaert, Belgium
Tour de France 2026 starts from Barcelona, Spain in

Stats and Facts from
Tour de France.

2026   2025   2024   2023  2022  2021  2020  2019   2018  2017   2016   2015  2014  2013   2012   2011  2010   2009   2008   2007   2006   2005   2004   2003   2002   2001   2000   1999   1998   1997  1996   1995   1994   1993   1992  1991   1990   1989   1988   1987   1986   1985   1984   1983  1982  1981   1980   1979  1978  1977   1976  1975  1974  1973   1972   1971   1970  1969   1968   1967   1966   1965  1964  1963   1962   1961   1960   1959   1958   1957  1956   1955   1954   1953   1952  1951  1950  1949   1948  1947  1939   1938   1937   1936   1935   1934   1933  1932   1931   1930  1929   1928   1927   1926  1925  1924  1923   1922   1921   1920   1919  1914   1913   1912   1911   1910  1909   1908   1907   1906  1905  1904   1903 

Tourstats
Sitemap

After stage 21 - 2025:
 16451 starters.
  5463 different riders.
  689 teams.
  2398 stages.
  470 restdays.
  466506.50 km.
  5925 abandoned riders.

Click map for 1991 route.
Facts from Tour de France 1991
  |   Stages.  |   Stage winners.  |   Days in jerseys.  |   Teams.  |   All riders.  |   All riders by age.  |   All riders from.  |  

  |   Rookies.  |   Withdrawls.  |   Average speed.  |   GC.  |   Polka  |   Green  |   White  |   Summits. (In tour)  |   Miscellaneous.  |  

Stage 19 on July 25th. 1991
Pick a stage:  Pro  1  2  3  4  5  6  7  8  9  10  11  12  13  14  15  16  17  18  19  20  21  22  

After stage 19:    Miguel Indurain  
  Morzine-AvoriazAix-les-Bains | Dist: 177.00km. | Winner: Dimitri Konychev

Podium
4  Côte de Gets Claudio Chiappucciafter4.00 km.

3  Côte devey Melchor Mauriafter50.00 km.

4  Côte de Saint Jean de Sixt Melchor Mauriafter64.00 km.

3  Col de Leschaux Guido Winterbergafter125.00 km.

2  Le Mont Revard - Chambery  Pascal Richardafter153.00 km.


Average speed for all riders in stage:  40,326 km./hr.

1
 Dimitri Konychev  TVM-Sanyo04h 18' 28"=41,088  km/h

2
 Pascal Richard  Helvetia04h 18' 28"=41,088  km/h

3
 Eduardo Chozas  O.N.C.E.04h 18' 39"+  00:00:11 =41,059  km/h

4  Greg LeMond  Z04h 18' 42"+  00:00:14 =41,051  km/h

5  Steven Rooks  Buckler04h 18' 42"+  00:00:14 =41,051  km/h

6  Gérard Rué  Helvetia04h 18' 42"+  00:00:14 =41,051  km/h

7  Vladimir Pulnikov  Carrera Jeans04h 19' 02"+  00:00:34 =40,999  km/h

8  Francisco Espinosa  Clas-Cajastur04h 19' 18"+  00:00:50 =40,956  km/h

9  Éric Caritoux  R.M.O.-Mavic-Liberia04h 19' 31"+  00:01:03 =40,922  km/h

10  Álvaro Mejía  Ryalcao-Postobon04h 19' 31"+  00:01:03 =40,922  km/h

11  Davide Cassani  Ariostea04h 19' 31"+  00:01:03 =40,922  km/h

12  Iñaki Gastón  Clas-Cajastur04h 19' 32"+  00:01:04 =40,920  km/h

13  Gert-Jan Theunisse  TVM-Sanyo04h 19' 32"+  00:01:04 =40,920  km/h

14  Pello Ruiz Cabestany  Clas-Cajastur04h 19' 52"+  00:01:24 =40,867  km/h

15  Gilles Delion  Helvetia04h 19' 52"+  00:01:24 =40,867  km/h

16  Johan Bruyneel  Lotto-Superclub-MBK04h 19' 52"+  00:01:24 =40,867  km/h

17  Uwe Ampler  Histor-Sigma04h 19' 52"+  00:01:24 =40,867  km/h

18  Rolf Gölz  Ariostea04h 19' 52"+  00:01:24 =40,867  km/h

19  Javier Murguialday  Amaya Seguros04h 19' 52"+  00:01:24 =40,867  km/h

20  Reynel Montoya  Ryalcao-Postobon04h 19' 52"+  00:01:24 =40,867  km/h

21  Enrico Zaina  Carrera Jeans04h 19' 57"+  00:01:29 =40,854  km/h

22  Christophe Lavainne  Castorama04h 20' 09"+  00:01:41 =40,823  km/h

23  Djamolidine Abduzhaparov  Carrera Jeans04h 20' 18"+  00:01:50 =40,799  km/h

24  Hendrik Redant  Lotto-Superclub-MBK04h 20' 18"+  00:01:50 =40,799  km/h

25  Maurizio Fondriest  Panasonic-Sportlife04h 20' 18"+  00:01:50 =40,799  km/h

26  Wilfried Peeters  Histor-Sigma04h 20' 18"+  00:01:50 =40,799  km/h

27  Patrick Verschueren  Lotto-Superclub-MBK04h 20' 18"+  00:01:50 =40,799  km/h

28  Viatcheslav Ekimov  Panasonic-Sportlife04h 20' 18"+  00:01:50 =40,799  km/h

29  Philippe Casado  Z04h 20' 18"+  00:01:50 =40,799  km/h

30  Andreas Kappes  Histor-Sigma04h 20' 18"+  00:01:50 =40,799  km/h

31  Peter Stevenhaagen  Helvetia04h 20' 18"+  00:01:50 =40,799  km/h

32  Rudy Verdonck  Weinmann-Eddy Merckx04h 20' 18"+  00:01:50 =40,799  km/h

33  Pascal Simon  Castorama04h 20' 18"+  00:01:50 =40,799  km/h

34  Laurent Pillon  Tonton Tapis-Corona04h 20' 18"+  00:01:50 =40,799  km/h

35  Brian Holm  Histor-Sigma04h 20' 18"+  00:01:50 =40,799  km/h

36  Christian Chaubet  Toshiba04h 20' 18"+  00:01:50 =40,799  km/h

37  Frédéric Vichot  Castorama04h 20' 18"+  00:01:50 =40,799  km/h

38  Steve Bauer  Motorola04h 20' 18"+  00:01:50 =40,799  km/h

39  Dominique Arnould  Castorama04h 20' 18"+  00:01:50 =40,799  km/h

40  Gilbert Duclos-Lassalle  Z04h 20' 18"+  00:01:50 =40,799  km/h

41  Jerôme Simon  Z04h 20' 18"+  00:01:50 =40,799  km/h

42  Guy Nulens  Panasonic-Sportlife04h 20' 18"+  00:01:50 =40,799  km/h

43  Claudio Chiappucci  Carrera Jeans04h 20' 18"+  00:01:50 =40,799  km/h

44  Marc Sergeant  Panasonic-Sportlife04h 20' 18"+  00:01:50 =40,799  km/h

45  Gerrit De Vries  Buckler04h 20' 18"+  00:01:50 =40,799  km/h

46  Didier Virvaleix  Histor-Sigma04h 20' 18"+  00:01:50 =40,799  km/h

47  Gianni Bugno  Gatorade-Chateau d'Ax04h 20' 18"+  00:01:50 =40,799  km/h

48  Laurent Fignon  Castorama04h 20' 18"+  00:01:50 =40,799  km/h

49  Charly Mottet  R.M.O.-Mavic-Liberia04h 20' 18"+  00:01:50 =40,799  km/h

50  Fabrice Philipot  Banesto04h 20' 18"+  00:01:50 =40,799  km/h

51  Jean-Claude Bagot  Castorama04h 20' 18"+  00:01:50 =40,799  km/h

52  Ronan Pensec  Amaya Seguros04h 20' 18"+  00:01:50 =40,799  km/h

53  Dominik Krieger  Helvetia04h 20' 18"+  00:01:50 =40,799  km/h

54  Olaf Lurvik  Toshiba04h 20' 18"+  00:01:50 =40,799  km/h

55  Thierry Bourguignon  Toshiba04h 20' 18"+  00:01:50 =40,799  km/h

56  Pedro Delgado  Banesto04h 20' 18"+  00:01:50 =40,799  km/h

57  Pascal Lino  R.M.O.-Mavic-Liberia04h 20' 18"+  00:01:50 =40,799  km/h

58  Marc van Orsouw  Panasonic-Sportlife04h 20' 18"+  00:01:50 =40,799  km/h

59  Jesus Rodriguez Magro  Banesto04h 20' 18"+  00:01:50 =40,799  km/h

60  Denis Roux  Toshiba04h 20' 18"+  00:01:50 =40,799  km/h

61  Roberto Gusmeroli  Gatorade-Chateau d'Ax04h 20' 18"+  00:01:50 =40,799  km/h

62  Patrick Jacobs  Tonton Tapis-Corona04h 20' 18"+  00:01:50 =40,799  km/h

63  Sergei Uslamin  TVM-Sanyo04h 20' 18"+  00:01:50 =40,799  km/h

64  Miguel Indurain  Banesto04h 20' 18"+  00:01:50 =40,799  km/h

65  Philippe Louviot  Toshiba04h 20' 18"+  00:01:50 =40,799  km/h

66  Alessandro Giannelli  Carrera Jeans04h 20' 18"+  00:01:50 =40,799  km/h

67  Andy Hampsten  Motorola04h 20' 18"+  00:01:50 =40,799  km/h

68  Henri Abadie  Toshiba04h 20' 18"+  00:01:50 =40,799  km/h

69  Patrice Esnault  Amaya Seguros04h 20' 18"+  00:01:50 =40,799  km/h

70  Stephen Hodge  O.N.C.E.04h 20' 18"+  00:01:50 =40,799  km/h

71  Moreno Argentin  Ariostea04h 20' 18"+  00:01:50 =40,799  km/h

72  Luc Leblanc  Castorama04h 20' 18"+  00:01:50 =40,799  km/h

73  Bruno Cenghialta  Ariostea04h 20' 18"+  00:01:50 =40,799  km/h

74  Alberto Elli  Ariostea04h 20' 18"+  00:01:50 =40,799  km/h

75  Thierry Claveyrolat  R.M.O.-Mavic-Liberia04h 20' 18"+  00:01:50 =40,799  km/h

76  Bruno Cornillet  Z04h 20' 18"+  00:01:50 =40,799  km/h

77  Giancarlo Perini  Carrera Jeans04h 20' 18"+  00:01:50 =40,799  km/h

78  Francisco Mauleón  Clas-Cajastur04h 20' 18"+  00:01:50 =40,799  km/h

79  Herminio Diaz Zabala  O.N.C.E.04h 20' 18"+  00:01:50 =40,799  km/h

80  Javier Duch  Clas-Cajastur04h 20' 18"+  00:01:50 =40,799  km/h

81  François Lemarchand  Z04h 20' 18"+  00:01:50 =40,799  km/h

82  Alberto Camargo  Ryalcao-Postobon04h 20' 18"+  00:01:50 =40,799  km/h

83  Pascal Lance  Toshiba04h 20' 18"+  00:01:50 =40,799  km/h

84  Abelardo Rondón  Banesto04h 20' 18"+  00:01:50 =40,799  km/h

85  Mauro Ribeiro  R.M.O.-Mavic-Liberia04h 20' 18"+  00:01:50 =40,799  km/h

86  Jure Pavlič  Carrera Jeans04h 20' 18"+  00:01:50 =40,799  km/h

87  Marco Giovannetti  Gatorade-Chateau d'Ax04h 20' 18"+  00:01:50 =40,799  km/h

88  Dimitri Zhdanov  Panasonic-Sportlife04h 20' 18"+  00:01:50 =40,799  km/h

89  Valerio Tebaldi  Gatorade-Chateau d'Ax04h 20' 18"+  00:01:50 =40,799  km/h

90  Alberto Leanizbarrutia  Clas-Cajastur04h 20' 18"+  00:01:50 =40,799  km/h

91  Anselmo Fuerte  O.N.C.E.04h 20' 18"+  00:01:50 =40,799  km/h

92  Phil Anderson  Motorola04h 21' 01"+  00:02:33 =40,687  km/h

93  Gerardo Moncada  Ryalcao-Postobon04h 21' 53"+  00:03:25 =40,552  km/h

94  Michel Dernies  Weinmann-Eddy Merckx04h 21' 53"+  00:03:25 =40,552  km/h

95  Roland Le Clerc  Amaya Seguros04h 21' 53"+  00:03:25 =40,552  km/h

96  Eric Van Lancker  Panasonic-Sportlife04h 21' 53"+  00:03:25 =40,552  km/h

97  Carlos Jaramillo  Ryalcao-Postobon04h 21' 53"+  00:03:25 =40,552  km/h

98  Jean-François Bernard  Banesto04h 21' 53"+  00:03:25 =40,552  km/h

99  Erich Mächler  Carrera Jeans04h 21' 53"+  00:03:25 =40,552  km/h

100  Frank Van Den Abeele  Lotto-Superclub-MBK04h 21' 53"+  00:03:25 =40,552  km/h

101  Luis Herrera  Ryalcao-Postobon04h 21' 53"+  00:03:25 =40,552  km/h

102  Robert Millar  Z04h 21' 53"+  00:03:25 =40,552  km/h

103  Roberto Conti  Ariostea04h 23' 13"+  00:04:45 =40,347  km/h

104  Henry Cárdenas  Ryalcao-Postobon04h 24' 45"+  00:06:17 =40,113  km/h

105  Enrique Guerrikagoitia  Amaya Seguros04h 26' 10"+  00:07:42 =39,900  km/h

106  Mauro Gianetti  Helvetia04h 27' 37"+  00:09:09 =39,684  km/h

107  Guido Winterberg  Helvetia04h 27' 37"+  00:09:09 =39,684  km/h

108  Javier Lukin  Banesto04h 27' 37"+  00:09:09 =39,684  km/h

109  José-Manuel Oliveira  Clas-Cajastur04h 27' 37"+  00:09:09 =39,684  km/h

110  Ron Kiefel  Motorola04h 27' 37"+  00:09:09 =39,684  km/h

111  Jean-Claude Colotti  Tonton Tapis-Corona04h 27' 37"+  00:09:09 =39,684  km/h

112  Andrew Bishop  Motorola04h 27' 37"+  00:09:09 =39,684  km/h

113  Francis Moreau  Tonton Tapis-Corona04h 27' 37"+  00:09:09 =39,684  km/h

114  Thierry Laurent  R.M.O.-Mavic-Liberia04h 27' 37"+  00:09:09 =39,684  km/h

115  Werner Stutz  Weinmann-Eddy Merckx04h 27' 37"+  00:09:09 =39,684  km/h

116  Dominique Arnaud  Banesto04h 27' 37"+  00:09:09 =39,684  km/h

117  Éric Boyer  Z04h 27' 37"+  00:09:09 =39,684  km/h

118  Vasily Zhdanov  TVM-Sanyo04h 27' 37"+  00:09:09 =39,684  km/h

119  Mauro-Antonio Santaromita  Gatorade-Chateau d'Ax04h 27' 37"+  00:09:09 =39,684  km/h

120  Marino Alonso  Banesto04h 27' 37"+  00:09:09 =39,684  km/h

121  Jesús Montoya  Amaya Seguros04h 27' 37"+  00:09:09 =39,684  km/h

122  Frans Maassen  Buckler04h 27' 37"+  00:09:09 =39,684  km/h

123  Óscar Vargas  Ryalcao-Postobon04h 27' 37"+  00:09:09 =39,684  km/h

124  Laurence Roche  Tonton Tapis-Corona04h 27' 37"+  00:09:09 =39,684  km/h

125  Urs Zimmermann  Motorola04h 27' 37"+  00:09:09 =39,684  km/h

126  Olaf Ludwig  Panasonic-Sportlife04h 27' 37"+  00:09:09 =39,684  km/h

127  Guido Bontempi  Carrera Jeans04h 27' 37"+  00:09:09 =39,684  km/h

128  Laurent Jalabert  Toshiba04h 29' 11"+  00:10:43 =39,453  km/h

129  Miguel Angel Martinez  O.N.C.E.04h 29' 41"+  00:11:13 =39,380  km/h

130  Marino Lejarreta  O.N.C.E.04h 29' 41"+  00:11:13 =39,380  km/h

131  Bjarne Riis  Castorama04h 29' 41"+  00:11:13 =39,380  km/h

132  Jelle Nijdam  Buckler04h 29' 41"+  00:11:13 =39,380  km/h

133  Thomas Barth  TVM-Sanyo04h 29' 41"+  00:11:13 =39,380  km/h

134  Eric Vanderaerden  Buckler04h 29' 41"+  00:11:13 =39,380  km/h

135  Henri Manders  Helvetia04h 29' 41"+  00:11:13 =39,380  km/h

136  Jan Siemons  TVM-Sanyo04h 29' 41"+  00:11:13 =39,380  km/h

137  Etienne De Wilde  Histor-Sigma04h 29' 41"+  00:11:13 =39,380  km/h

138  Michel Vermote  R.M.O.-Mavic-Liberia04h 29' 41"+  00:11:13 =39,380  km/h

139  Arsenio Chaparro  Ryalcao-Postobon04h 29' 41"+  00:11:13 =39,380  km/h

140  Per Pedersen  Amaya Seguros04h 29' 41"+  00:11:13 =39,380  km/h

141  Stefano Zanatta  Gatorade-Chateau d'Ax04h 29' 41"+  00:11:13 =39,380  km/h

142  Melchor Mauri  O.N.C.E.04h 29' 41"+  00:11:13 =39,380  km/h

143  Jan Schur  Gatorade-Chateau d'Ax04h 29' 41"+  00:11:13 =39,380  km/h

144  Rolf Järmann  Weinmann-Eddy Merckx04h 29' 41"+  00:11:13 =39,380  km/h

145  Marc Madiot  R.M.O.-Mavic-Liberia04h 29' 41"+  00:11:13 =39,380  km/h

146  Thierry Marie  Castorama04h 29' 41"+  00:11:13 =39,380  km/h

147  Rob Harmeling  TVM-Sanyo04h 29' 41"+  00:11:13 =39,380  km/h

148  Rik  Van Slycke  Lotto-Superclub-MBK04h 29' 41"+  00:11:13 =39,380  km/h

149  Eddy Schurer  TVM-Sanyo04h 29' 41"+  00:11:13 =39,380  km/h

150  Thomas Wegmüller  Weinmann-Eddy Merckx04h 29' 41"+  00:11:13 =39,380  km/h

151  Wiebren Veenstra  Buckler04h 29' 41"+  00:11:13 =39,380  km/h

152  Peter De Clercq  Lotto-Superclub-MBK04h 31' 54"+  00:13:26 =39,058  km/h

153  Guiseppe Calcaterra  Gatorade-Chateau d'Ax04h 31' 55"+  00:13:27 =39,056  km/h

154  Gerrit Solleveld  Buckler04h 31' 55"+  00:13:27 =39,056  km/h

155  Ludwig Willems  Weinmann-Eddy Merckx04h 32' 22"+  00:13:54 =38,992  km/h

156  Edwig Van Hooydonck  Buckler04h 32' 22"+  00:13:54 =38,992  km/h

157  Alfred Achermann  Weinmann-Eddy Merckx04h 34' 11"+  00:15:43 =38,733  km/h

158  Toine  Poels  Buckler04h 34' 11"+  00:15:43 =38,733  km/h


Withdrawls: 2
 RiderTeamReason
77   Dag Otto Lauritzen MotorolaDid not start
212   Manuel Dominguez Clas-CajasturDisqualified
Todays birthdays.

1888 • Giuseppe Contesini
1911 • Edmond Pages
1935 • Eddy Pauwels
1940 • Julien Haelterman
1958 • Luc Colijn
1962 • Jean-François Bernard
1984 • Yann Huguet
1993 • Owain Doull

 

Optimized for Chrome - Edge
and Opera browsers.